Weather History for Perugia, Italy

Change the Weather History Date:

Monday, September 23, 2013

  Actual Average Record
Temperature  
Mean Temperature 66 °F -  
Max Temperature 80 °F 68 °F 82 °F (2011)
Min Temperature 51 °F 50 °F 42 °F (2008)
Growing Degree Days 16 (Base 50)    
Moisture  
Dew Point 46 °F    
Average Humidity 50    
Maximum Humidity 82    
Minimum Humidity 23    
Precipitation  
Precipitation 0.00 in 0.10 in - ()
Sea Level Pressure  
Sea Level Pressure 30.13 in    
Wind  
Wind Speed 7 mph ()    
Max Wind Speed 13 mph    
Max Gust Speed -    
Averages and records for this station are not official NWS values.
T = Trace of Precipitation, MM = Missing Value Source: Averaged Metar Reports

Daily Weather History Graph

Daily Weather History Graph

Search for Another Location

Airport:

Trip Planner

Search our weather history database for the weather conditions in past years. The results will help you decide how hot, cold, wet, or windy it might be!

Date:

Astronomy

Sep. 23, 2013 Rise Set
Actual Time 6:58 AM CEST 7:05 PM CEST
Civil Twilight 6:29 AM CEST 7:33 PM CEST
Nautical Twilight 5:56 AM CEST 8:07 PM CEST
Astronomical Twilight 5:22 AM CEST 8:40 PM CEST
Moon 9:18 PM CEST (9/23) 11:08 AM CEST (9/23)
Length of Visible Light 13h 03m
Length of Day
12h 07m
Waning Gibbous, 83% of the Moon is Illuminated
Sep 23
Waning Gibbous
Sep 27
Last Quarter
Oct 5
New
Oct 12
First Quarter
Oct 19
Full

Hourly Weather History & Observations

Time (CEST) Temp. Dew Point Humidity Pressure Visibility Wind Dir Wind Speed Gust Speed Precip Events Conditions
6:06 AM 51.8 °F 46.4 °F 82% 30.18 in - North 10.4 mph - N/A   Clear
6:50 AM 51.8 °F 46.4 °F 82% 30.18 in - North 11.5 mph - N/A   Clear
7:50 AM 53.6 °F 46.4 °F 77% 30.18 in - North 12.7 mph - N/A   Clear
8:50 AM 60.8 °F 48.2 °F 63% 30.18 in - North 8.1 mph - N/A   Clear
9:50 AM 64.4 °F 50.0 °F 59% 30.21 in - North 8.1 mph - N/A   Clear
10:50 AM 69.8 °F 50.0 °F 49% 30.18 in - Variable 3.5 mph - N/A   Clear
11:50 AM 73.4 °F 46.4 °F 38% 30.18 in - Variable 4.6 mph - N/A   Clear
12:50 PM 77.0 °F 42.8 °F 29% 30.15 in - NNE 6.9 mph - N/A   Clear
1:50 PM 78.8 °F 42.8 °F 28% 30.15 in - NNE 10.4 mph - N/A   Clear
2:50 PM 80.6 °F 41.0 °F 24% 30.12 in - North 10.4 mph - N/A   Clear
3:50 PM 80.6 °F 39.2 °F 23% 30.09 in - NNE 10.4 mph - N/A   Clear
4:50 PM 78.8 °F 42.8 °F 28% 30.09 in - ENE 6.9 mph - N/A   Clear
5:50 PM 78.8 °F 44.6 °F 30% 30.06 in - NNE 5.8 mph - N/A   Clear
6:50 PM 75.2 °F 44.6 °F 34% 30.06 in - ENE 6.9 mph - N/A   Clear
7:50 PM 66.2 °F 46.4 °F 49% 30.06 in - North 6.9 mph - N/A   Clear
8:50 PM 66.2 °F 48.2 °F 52% 30.09 in - North 5.8 mph - N/A   Clear
9:50 PM 60.8 °F 48.2 °F 63% 30.09 in - NNE 6.9 mph - N/A   Clear
10:50 PM 59.0 °F 50.0 °F 72% 30.09 in - Variable 4.6 mph - N/A   Clear
11:50 PM 55.4 °F 48.2 °F 77% 30.09 in - NNW 3.5 mph - N/A   Clear